Regional Weather Roundup
Issued by NWS

Home | Current Version | Previous Version | Graphics & Text | Print | Product List | Glossary Off
Versions: 1 2 3 4 5 6 7 8 9 10 11 12 13 14 15 16 17 18 19 20 21 22 23 24 25 26 27 28 29 30 31 32 33 34 35 36 37 38 39 40 41 42 43 44 45 46 47 48 49 50

000
ASUS43 KFSD 021910
RWRSD

WEATHER ROUNDUP FOR SOUTH DAKOTA
NATIONAL WEATHER SERVICE SIOUX FALLS SD
200 PM CDT THU JUL 02 2015

NOTE: "FAIR" INDICATES FEW OR NO CLOUDS BELOW 12,000 FEET WITH NO
SIGNIFICANT WEATHER AND/OR OBSTRUCTIONS TO VISIBILITY.


SDZ001>005-009-010-012>017-022000-
NORTHWEST AND NORTH CENTRAL SOUTH DAKOTA

CITY           SKY/WX    TMP DP  RH WIND       PRES   REMARKS
BUFFALO          N/A     75  55  49 NW24      30.01F
FAITH            N/A     76  56  49 N15       30.03F
MOBRIDGE       PTSUNNY   72  67  84 E5        29.97R
$$

SDZ012>016-024>037-041>051-057-063-072>074-022000-
SOUTHWEST AND SOUTH CENTRAL SOUTH DAKOTA

CITY           SKY/WX    TMP DP  RH WIND       PRES   REMARKS
RAPID CTY ARPT MOSUNNY   77  61  57 N20       30.08F
PIERRE         MOSUNNY   74  64  71 N8        29.98S
CUSTER         MOSUNNY   73  49  42 NW9       30.20F
ELLSWORTH AFB  MOSUNNY   78  58  51 N16G23    30.08F
PHILIP         MOSUNNY   80  62  54 N8        30.02S HAZE
PINE RIDGE     SUNNY     78  57  48 N14G21    30.08F
SPEARFISH      FAIR      72  55  56 NW13G23   30.15S
$$

SDZ004>011-016>023-039-040-022000-
NORTHEAST SOUTH DAKOTA

CITY           SKY/WX    TMP DP  RH WIND       PRES   REMARKS
ABERDEEN       CLOUDY    66  60  81 S8        29.99F
WATERTOWN      CLOUDY    70  49  47 SW6       30.01S
BROOKINGS      CLOUDY    70  46  43 E6        30.02S
SISSETON         N/A     74  51  44 S8        29.98F
$$

SDZ017-020-022-023-036>040-048>070-022000-
SOUTHEAST SOUTH DAKOTA

CITY           SKY/WX    TMP DP  RH WIND       PRES   REMARKS
SIOUX FALLS    CLOUDY    71  57  61 SE9       29.99S
HURON          LGT RAIN  64  60  87 E5        29.99R
CHAMBERLAIN    PTSUNNY   73  64  74 N9        29.98
MITCHELL       PTSUNNY   72  63  73 VRB6      29.98S
YANKTON        CLOUDY    63  59  88 E7        29.98R
$$

ABBREVIATIONS USED IN REMARKS
   TC - TEMPERATURE IN CELSIUS
  WCI - WIND CHILL INDEX
   HX - HEAT INDEX
  VSB - VISIBILITY



USA.gov is the U.S. government's official web portal to all federal, state and local government web resources and services.